Location: Burbank
(38.7788°N, 114.0429°W)
Time: 05:30:12
(UTC+00:00)

Tiros 1 despin weight - All Passes

Search period start: 10 May 2026 00:00
Search period end: 20 May 2026 00:00
Orbit: 555 x 591 km, 48.2° (Epoch: 9 May)

Date Brightness Start Highest point End Pass type
(mag) Time Alt. Az. Time Alt. Az. Time Alt. Az.
10 May - 13:31:46 10° SSW 13:35:37 36° SE 13:39:29 10° ENE daylight
10 May - 15:12:02 10° W 15:16:06 46° NNW 15:20:09 10° NE daylight
10 May - 16:53:58 10° WNW 16:57:20 23° N 17:00:42 10° NE daylight
10 May - 18:35:07 10° NW 18:38:47 28° NNE 18:42:28 10° ENE daylight
10 May - 20:15:29 10° WNW 20:19:41 87° SSW 20:23:54 10° SE daylight
10 May - 21:57:26 10° W 21:59:43 14° SW 22:02:00 10° SSW daylight
11 May - 13:33:14 10° SW 13:37:22 56° SE 13:41:30 10° ENE daylight
11 May - 15:14:11 10° W 15:18:03 35° NNW 15:21:55 10° NE daylight
11 May - 16:56:07 10° NW 16:59:26 22° N 17:02:45 10° NE daylight
11 May - 18:36:56 10° NW 18:40:48 35° NNE 18:44:40 10° E daylight
11 May - 20:17:22 10° WNW 20:21:29 56° SW 20:25:37 10° SE daylight
12 May - 11:56:50 10° SSE 11:59:08 14° SE 12:01:25 10° E visible
12 May - 13:34:56 10° SW 13:39:10 87° SSE 13:43:23 10° ENE daylight
12 May - 15:16:23 10° WNW 15:20:03 28° NNW 15:23:44 10° NE daylight
12 May - 16:58:08 10° NW 17:01:31 23° N 17:04:53 10° ENE daylight
12 May - 18:38:43 10° NW 18:42:45 46° NNE 18:46:48 10° E daylight
12 May - 20:19:23 10° WNW 20:23:13 36° SW 20:27:04 10° SSE daylight
13 May - 11:57:24 10° S 12:00:46 23° SE 12:04:06 10° E visible
13 May - 13:36:48 10° WSW 13:41:01 64° NNW 13:45:11 10° NE daylight
13 May - 15:18:35 10° WNW 15:22:06 25° N 15:25:35 10° NE daylight
13 May - 17:00:04 10° NW 17:03:34 25° N 17:07:03 10° ENE daylight
13 May - 18:40:29 10° NW 18:44:40 64° NNE 18:48:50 10° ESE daylight
13 May - 20:21:35 10° W 20:24:54 23° SW 20:28:12 10° S daylight
14 May - 11:58:32 10° SSW 12:02:26 36° SE 12:06:18 10° ENE daylight
14 May - 13:38:49 10° W 13:42:54 46° NNW 13:46:58 10° NE daylight
14 May - 15:20:46 10° WNW 15:24:09 23° N 15:27:31 10° NE daylight
14 May - 17:01:56 10° NW 17:05:36 28° NNE 17:09:16 10° ENE daylight
14 May - 18:42:17 10° WNW 18:46:30 87° SSW 18:50:42 10° SE daylight
14 May - 20:24:15 10° W 20:26:31 14° SW 20:28:47 10° SSW daylight
15 May - 12:00:00 10° SW 12:04:10 56° SE 12:08:18 10° ENE daylight
15 May - 13:40:56 10° W 13:44:51 35° NNW 13:48:44 10° NE daylight
15 May - 15:22:53 10° NW 15:26:13 22° N 15:29:32 10° NE daylight
15 May - 17:03:43 10° NW 17:07:35 35° NNE 17:11:27 10° E daylight
15 May - 18:44:10 10° WNW 18:48:16 57° SW 18:52:22 10° SE daylight
16 May - 10:23:34 10° SSE 10:25:54 14° SE 10:28:14 10° E visible
16 May - 12:01:40 10° SW 12:05:55 86° SSE 12:10:10 10° ENE daylight
16 May - 13:43:07 10° WNW 13:46:49 29° NNW 13:50:31 10° NE daylight
16 May - 15:24:54 10° NW 15:28:16 23° N 15:31:38 10° ENE daylight
16 May - 17:05:29 10° NW 17:09:32 45° NNE 17:13:34 10° E daylight
16 May - 18:46:09 10° WNW 18:49:59 36° SW 18:53:50 10° SSE daylight
17 May - 10:24:07 10° S 10:27:30 23° SE 10:30:52 10° E visible
17 May - 12:03:31 10° WSW 12:07:45 65° NNW 12:11:57 10° NE daylight
17 May - 13:45:18 10° WNW 13:48:50 25° N 13:52:21 10° NE daylight
17 May - 15:26:49 10° NW 15:30:19 25° N 15:33:48 10° ENE daylight
17 May - 17:07:14 10° NW 17:11:24 64° NNE 17:15:34 10° ESE daylight
17 May - 18:48:21 10° W 18:51:39 23° SW 18:54:57 10° S daylight
18 May - 10:25:14 10° SSW 10:29:10 36° SE 10:33:03 10° ENE visible
18 May - 12:05:31 10° W 12:09:38 46° NNW 12:13:43 10° NE daylight
18 May - 13:47:28 10° WNW 13:50:52 23° N 13:54:15 10° NE daylight
18 May - 15:28:39 10° NW 15:32:19 28° NNE 15:36:00 10° ENE daylight
18 May - 17:09:01 10° WNW 17:13:14 87° SSW 17:17:25 10° SE daylight
18 May - 18:50:59 10° W 18:53:15 14° SW 18:55:30 10° SSW daylight
19 May - 10:26:40 10° SW 10:30:51 56° SE 10:35:01 10° ENE visible
19 May - 12:07:36 10° W 12:11:32 35° NNW 12:15:27 10° NE daylight
19 May - 13:49:34 10° NW 13:52:55 22° N 13:56:15 10° NE daylight
19 May - 15:30:25 10° NW 15:34:18 35° NNE 15:38:09 10° E daylight
19 May - 17:10:52 10° WNW 17:14:59 57° SW 17:19:05 10° SE daylight
